[[{"header":{"parameterUnit":"m.s-1","parameterCategory":1,"la1":30.2991,"la2":30.254,"lo1":-89.0895,"lo2":-89.0444,"dy":0.0017,"dx":0.0017,"nx":28,"ny":28,"refTime":"2024-08-14T03:00:00:Z","depth":0,"parameterNumber":2,"parameterNumberName":"U-component_of_WINDS"},"data":[0,0,0,0,0,0,0,0,0,0,0,0,0,0,0,0,0,0,0,0,0,0,0,0,0,0,0,0,0,0,0,0,0,0,0,0,0,0,0,0,0,0,0,0,0,0,0,0,0,0,0,0,0,0,0,0,0,0,2.5585,2.5585,0,2.5658,2.5659,2.566,2.5619,2.5617,2.5615,2.5613,2.5686,2.5689,2.5693,0,0,0,0,0,0,0,0,0,0,0,0,0,2.5407,2.541,2.5585,2.5585,2.5586,2.5658,2.5659,2.566,2.5619,2.5617,2.5614,2.5612,2.5684,2.5689,2.5693,0,0,0,0,0,0,0,0,0,0,0,0,0,2.5483,2.5412,2.5584,2.5575,2.5575,2.5658,2.5659,2.5661,2.562,2.5617,2.5614,2.5611,2.5683,2.5688,2.5694,2.579,0,0,2.5712,2.5714,0,0,0,0,0,0,0,0,2.5478,2.5489,2.5575,2.5576,2.5576,2.5626,2.5623,2.5704,2.5621,2.5603,2.5613,2.5609,2.5668,2.5675,2.5695,2.5794,2.5797,2.5712,2.5716,2.5718,2.572,0,0,0,0,0,0,0,2.5473,2.5486,2.5614,2.5576,2.5577,2.5566,2.5574,2.5638,2.5651,2.5604,2.5601,2.5611,2.5668,2.569,2.5697,2.5798,2.5712,2.5717,2.5721,2.5723,2.5982,2.5985,0,0,0,0,0,0,2.5469,2.5482,2.5611,2.5616,2.5519,2.5572,2.558,2.5613,2.5651,2.5653,2.5613,2.5608,2.5682,2.569,2.5699,2.5816,2.5718,2.5723,2.5727,2.5978,2.5983,2.5986,0,0,0,0,0,0,2.5465,2.5481,2.5608,2.5548,2.5564,2.5578,2.5616,2.5616,2.5638,2.5658,2.5659,2.5634,2.568,2.5691,2.5769,2.5818,2.5726,2.5731,2.5974,2.598,2.5984,2.6051,0,0,0,0,0,0,2.546,2.548,2.5517,2.5549,2.5567,2.5677,2.5618,2.562,2.5649,2.5643,2.5677,2.568,2.5678,2.5761,2.5775,2.5824,2.5736,2.597,2.5977,2.5983,2.6044,2.6057,2.6069,0,0,0,0,0,2.5454,2.5531,2.5519,2.5535,2.5614,2.568,2.569,2.5687,2.5653,2.569,2.5703,2.5679,2.581,2.5769,2.5784,2.5837,2.5967,2.5975,2.5982,2.6038,2.6055,2.6068,0,0,0,0,0,0,2.5502,2.5535,2.5522,2.5612,2.5644,2.5673,2.572,2.5704,2.5746,2.5739,2.5732,2.574,2.5822,2.5837,2.579,2.5933,2.5883,2.5894,2.5921,2.5936,2.5948,2.5944,2.574,0,0,0,0,0,2.5524,2.5576,2.5601,2.5678,2.5695,2.5705,2.5734,2.5729,2.5762,2.5775,2.5793,2.5825,2.5873,2.5905,2.5951,2.6046,2.6053,2.609,2.6102,2.6112,2.6122,2.6176,2.6192,2.6012,2.6012,2.6011,0,0,2.5568,2.5592,2.5625,2.5689,2.5713,2.5767,2.5717,2.5775,2.5816,2.5783,2.5859,2.5873,2.5908,2.5996,2.6035,2.6011,2.6174,2.6122,2.613,2.6134,2.6185,2.6202,2.6218,2.6017,2.6016,2.6015,0,0,2.5676,2.5699,2.5767,2.5793,2.5831,2.5838,2.5854,2.5887,2.5896,2.5972,2.5949,2.5997,2.608,2.6107,2.6131,2.6253,2.6233,2.6268,2.6333,2.6385,2.6399,2.6412,2.6457,2.6473,2.6277,2.6278,2.6278,0,2.5726,2.5808,2.5804,2.5866,2.5895,2.587,2.5939,2.5963,2.6014,2.6035,2.6007,2.6113,2.6135,2.6229,2.6259,2.6279,2.6299,2.6264,2.6397,2.641,2.6422,2.6465,2.6482,2.6282,2.6281,2.6281,2.628,0,2.5868,2.5925,2.5975,2.6027,2.6061,2.6126,2.6133,2.6168,2.6161,2.617,2.6249,2.6274,2.6326,2.6348,2.634,2.6442,2.6426,2.6398,2.6348,2.6443,2.6484,2.65,2.6288,2.6286,2.6285,2.6284,0,0,2.6008,2.6059,2.6078,2.6102,2.6143,2.6187,2.6251,2.6303,2.6334,2.637,2.6425,2.6497,2.6472,2.65,2.6496,2.6541,2.6639,2.6508,2.6509,2.6533,2.6755,2.6777,2.6796,2.6626,2.6629,2.6631,2.6753,0,2.6121,2.6235,2.6234,2.6339,2.6393,2.6371,2.6427,2.6458,2.6469,2.6516,2.6527,2.658,2.6542,2.6559,2.6604,2.6618,2.6683,2.6608,2.6677,2.6679,2.667,2.6817,2.684,2.6954,2.6768,2.6771,2.6773,0,2.6268,2.6311,2.6422,2.6458,2.648,2.6531,2.658,2.6624,2.666,2.6665,2.6698,2.6686,2.6752,2.67,2.6791,2.6741,2.6768,2.678,2.6784,2.6791,2.6733,2.683,2.6989,2.7007,2.6797,2.6795,2.6794,0,2.6362,2.6447,2.6526,2.6547,2.6589,2.6626,2.6645,2.6678,2.671,2.6752,2.6773,2.6822,2.6849,2.6888,2.689,2.6852,2.6983,2.693,2.699,2.699,2.7019,2.7018,2.7188,2.7035,2.7035,2.7034,2.7034,0,2.6489,2.6558,2.6569,2.6617,2.6694,2.6693,2.677,2.6786,2.6815,2.6866,2.6849,2.6897,2.6897,2.6947,2.6949,2.7026,2.7037,2.7044,2.7044,2.7046,2.7046,2.7065,2.7058,2.7039,2.7038,2.7037,2.7036,0,2.6607,2.6617,2.6701,2.6736,2.6746,2.6802,2.6831,2.6877,2.6887,2.6952,2.6967,2.6983,2.704,2.7047,2.7113,2.7115,2.7208,2.7198,2.7197,2.7196,2.7255,2.7251,2.7445,2.7471,2.73,2.7301,2.7303,0,2.6688,2.6741,2.6782,2.6816,2.6838,2.6892,2.6926,2.6927,2.6962,2.7008,2.7049,2.7105,2.715,2.7243,2.726,2.7311,2.7304,2.7369,2.7311,2.7313,2.7307,2.7305,2.7311,2.738,2.7382,2.7383,2.7385,0,2.6832,2.6835,2.6884,2.6936,2.6977,2.7017,2.7055,2.7083,2.7089,2.713,2.7189,2.7225,2.7294,2.735,2.7401,2.742,2.7405,2.7403,2.7419,2.7423,2.7421,2.7425,2.7229,2.7398,2.7397,2.7396,2.7395,2.7395,2.6935,2.6983,2.702,2.7076,2.7105,2.7141,2.7187,2.7204,2.7254,2.7311,2.7308,2.7375,2.741,2.7477,2.7501,2.7553,2.7531,2.7555,2.7561,2.7568,2.7575,2.7412,2.7561,2.7561,2.7561,2.756,2.756,0,2.708,2.7103,2.7155,2.721,2.7254,2.7236,2.7278,2.7316,2.7375,2.741,2.7456,2.7525,2.758,2.7602,2.7656,2.7694,2.7688,2.7708,2.7706,2.7711,2.759,2.7571,2.7712,2.7712,2.7712,2.7712,2.7712,2.7712,2.7161,2.7241,2.7248,2.7343,2.7365,2.7431,2.7457,2.7491,2.7519,2.7598,2.7644,2.7658,2.7689,2.7745,2.7796,2.7801,2.7822,2.7846,2.7848,2.7735,2.7719,2.7705,2.7687,2.785,2.7851,2.7966,2.7967,2.7967]},{"header":{"parameterUnit":"m.s-1","parameterCategory":1,"la1":30.2991,"la2":30.254,"lo1":-89.0895,"lo2":-89.0444,"dy":0.0017,"dx":0.0017,"nx":28,"ny":28,"refTime":"2024-08-14T03:00:00:Z","depth":0,"parameterNumber":3,"parameterNumberName":"V-component_of_WINDS"},"data":[0,0,0,0,0,0,0,0,0,0,0,0,0,0,0,0,0,0,0,0,0,0,0,0,0,0,0,0,0,0,0,0,0,0,0,0,0,0,0,0,0,0,0,0,0,0,0,0,0,0,0,0,0,0,0,0,0,0,-2.7421,-2.7423,0,-2.7523,-2.7525,-2.7526,-2.7499,-2.7497,-2.7495,-2.7493,-2.7596,-2.7601,-2.7605,0,0,0,0,0,0,0,0,0,0,0,0,0,-2.7204,-2.7208,-2.7421,-2.7423,-2.7424,-2.7523,-2.7525,-2.7526,-2.75,-2.7497,-2.7495,-2.7492,-2.7595,-2.76,-2.7606,0,0,0,0,0,0,0,0,0,0,0,0,0,-2.7301,-2.7209,-2.7421,-2.7423,-2.7424,-2.7523,-2.7525,-2.7526,-2.75,-2.7497,-2.7494,-2.7491,-2.7593,-2.76,-2.7607,-2.771,0,0,-2.7628,-2.7631,0,0,0,0,0,0,0,0,-2.7296,-2.7309,-2.7421,-2.7423,-2.7424,-2.7496,-2.7486,-2.7588,-2.7501,-2.7471,-2.7493,-2.749,-2.7565,-2.7574,-2.76,-2.7715,-2.7719,-2.7628,-2.7633,-2.7636,-2.7638,0,0,0,0,0,0,0,-2.7289,-2.7305,-2.7462,-2.7423,-2.7425,-2.7418,-2.7429,-2.7505,-2.7534,-2.7474,-2.7472,-2.7484,-2.7565,-2.7593,-2.7602,-2.7721,-2.7628,-2.7634,-2.7639,-2.7641,-2.7926,-2.793,0,0,0,0,0,0,-2.7281,-2.7299,-2.7458,-2.7465,-2.7351,-2.7425,-2.7437,-2.7476,-2.7533,-2.7539,-2.7487,-2.7483,-2.7583,-2.7594,-2.7606,-2.7731,-2.7636,-2.7642,-2.7646,-2.7923,-2.7927,-2.7931,0,0,0,0,0,0,-2.7277,-2.7296,-2.7454,-2.7382,-2.7401,-2.7432,-2.7476,-2.7479,-2.7507,-2.7543,-2.7548,-2.751,-2.7581,-2.7596,-2.7685,-2.7734,-2.7645,-2.7651,-2.7919,-2.7924,-2.7929,-2.7981,0,0,0,0,0,0,-2.7271,-2.7294,-2.7334,-2.7383,-2.7405,-2.7532,-2.7479,-2.7484,-2.7519,-2.7515,-2.7566,-2.7572,-2.758,-2.7674,-2.7691,-2.7742,-2.7657,-2.7915,-2.7921,-2.7927,-2.7975,-2.7988,-2.7998,0,0,0,0,0,-2.7263,-2.7344,-2.7336,-2.7355,-2.7455,-2.7534,-2.7547,-2.7555,-2.7523,-2.7563,-2.7587,-2.757,-2.7726,-2.7684,-2.7703,-2.7756,-2.7911,-2.7919,-2.7927,-2.797,-2.7985,-2.7998,0,0,0,0,0,0,-2.7298,-2.735,-2.7342,-2.7441,-2.7484,-2.753,-2.758,-2.7571,-2.7623,-2.7617,-2.7624,-2.7636,-2.7727,-2.775,-2.7702,-2.7859,-2.7814,-2.7826,-2.784,-2.7855,-2.7866,-2.7858,-2.7663,0,0,0,0,0,-2.7318,-2.7378,-2.742,-2.7503,-2.7525,-2.7549,-2.7584,-2.7587,-2.7631,-2.7649,-2.7679,-2.7722,-2.7781,-2.7819,-2.7876,-2.7979,-2.799,-2.8025,-2.8037,-2.8046,-2.8056,-2.8113,-2.8129,-2.7956,-2.7956,-2.7956,0,0,-2.7359,-2.7394,-2.7432,-2.7512,-2.7545,-2.7607,-2.7565,-2.7632,-2.7678,-2.7659,-2.7744,-2.7768,-2.7817,-2.7914,-2.7958,-2.7936,-2.8106,-2.8056,-2.8063,-2.8068,-2.8123,-2.8139,-2.8153,-2.7961,-2.796,-2.7959,0,0,-2.7464,-2.7497,-2.7571,-2.7606,-2.7657,-2.7673,-2.7691,-2.7739,-2.7754,-2.7841,-2.7828,-2.7883,-2.7984,-2.802,-2.8052,-2.8173,-2.816,-2.8192,-2.8251,-2.8307,-2.832,-2.8332,-2.8376,-2.8391,-2.8201,-2.8202,-2.8202,0,-2.7508,-2.7601,-2.761,-2.7679,-2.7714,-2.7702,-2.7776,-2.781,-2.7877,-2.7902,-2.7877,-2.8004,-2.8036,-2.8142,-2.8172,-2.8198,-2.8218,-2.8185,-2.8318,-2.833,-2.8341,-2.8383,-2.8399,-2.8205,-2.8205,-2.8204,-2.8204,0,-2.7652,-2.7718,-2.7771,-2.7837,-2.7879,-2.795,-2.797,-2.8012,-2.8012,-2.803,-2.8119,-2.8157,-2.8221,-2.8247,-2.8247,-2.8353,-2.8338,-2.8315,-2.827,-2.8361,-2.84,-2.8416,-2.821,-2.8209,-2.8208,-2.8207,0,0,-2.7781,-2.7853,-2.7872,-2.7903,-2.796,-2.801,-2.8082,-2.8145,-2.8181,-2.8228,-2.8288,-2.8375,-2.8356,-2.8391,-2.8396,-2.8445,-2.8539,-2.8416,-2.8418,-2.8438,-2.8659,-2.8675,-2.8693,-2.8532,-2.8535,-2.8537,-2.8655,0,-2.7892,-2.8018,-2.8028,-2.8142,-2.8202,-2.8192,-2.8254,-2.8296,-2.8316,-2.8371,-2.8392,-2.8454,-2.8423,-2.8445,-2.8493,-2.8518,-2.8584,-2.8509,-2.8587,-2.859,-2.8575,-2.8714,-2.8731,-2.884,-2.867,-2.8673,-2.8675,0,-2.8036,-2.8089,-2.8209,-2.8259,-2.8285,-2.8341,-2.84,-2.8453,-2.8501,-2.8512,-2.8553,-2.8551,-2.8625,-2.8578,-2.868,-2.863,-2.8662,-2.868,-2.8684,-2.8691,-2.8637,-2.8724,-2.8875,-2.8891,-2.8699,-2.8697,-2.8695,0,-2.8118,-2.8219,-2.8304,-2.8331,-2.8391,-2.8431,-2.8458,-2.8503,-2.8541,-2.8593,-2.8618,-2.8679,-2.8711,-2.8758,-2.8773,-2.8738,-2.8875,-2.8829,-2.8886,-2.8886,-2.8915,-2.8913,-2.9073,-2.8937,-2.8937,-2.8937,-2.8936,0,-2.824,-2.8313,-2.8342,-2.8394,-2.8477,-2.8489,-2.857,-2.8595,-2.8636,-2.8693,-2.8688,-2.8741,-2.8758,-2.8815,-2.8827,-2.891,-2.8925,-2.8936,-2.8938,-2.8936,-2.8935,-2.8957,-2.895,-2.8941,-2.894,-2.8939,-2.8938,0,-2.8344,-2.8366,-2.8458,-2.8509,-2.8523,-2.8582,-2.8625,-2.8676,-2.8696,-2.8768,-2.8786,-2.8817,-2.8883,-2.8903,-2.8983,-2.8992,-2.9089,-2.9085,-2.9073,-2.9073,-2.9129,-2.9124,-2.9309,-2.9334,-2.9182,-2.9184,-2.9185,0,-2.842,-2.8476,-2.8534,-2.8572,-2.8601,-2.8662,-2.8701,-2.8716,-2.8758,-2.8818,-2.8861,-2.8927,-2.8981,-2.9088,-2.9118,-2.9179,-2.9176,-2.9237,-2.9185,-2.9182,-2.9177,-2.9173,-2.9179,-2.9246,-2.9248,-2.9249,-2.925,0,-2.8552,-2.8561,-2.8617,-2.8679,-2.8727,-2.8776,-2.8823,-2.8854,-2.8876,-2.8923,-2.8992,-2.9034,-2.9116,-2.9182,-2.9245,-2.9273,-2.9266,-2.9267,-2.9283,-2.9281,-2.9272,-2.9278,-2.9099,-2.9262,-2.9261,-2.926,-2.9259,-2.9259,-2.8644,-2.8694,-2.8743,-2.8807,-2.8844,-2.8889,-2.894,-2.8967,-2.9024,-2.9093,-2.9099,-2.9173,-2.9221,-2.9305,-2.9337,-2.9395,-2.9377,-2.9401,-2.9407,-2.9413,-2.9417,-2.9264,-2.9407,-2.9406,-2.9406,-2.9406,-2.9406,0,-2.8776,-2.8807,-2.8866,-2.8933,-2.8984,-2.8974,-2.9026,-2.9069,-2.9135,-2.918,-2.9234,-2.9314,-2.9378,-2.9414,-2.9478,-2.9519,-2.9517,-2.9535,-2.9532,-2.9539,-2.943,-2.9409,-2.9535,-2.9535,-2.9535,-2.9535,-2.9535,-2.9535,-2.885,-2.8935,-2.8949,-2.9053,-2.9084,-2.9157,-2.9188,-2.923,-2.9267,-2.9356,-2.941,-2.9433,-2.9475,-2.9543,-2.9602,-2.9611,-2.9635,-2.9655,-2.9662,-2.9559,-2.9546,-2.9533,-2.9514,-2.966,-2.9661,-2.9766,-2.9767,-2.9768]}]]